Woodward, OK

5:24 AM CST on December 16, 2019 (GMT -0600)
West Woodward

Weather History for KWWR - November, 2019

Change the Weather History Date:

Monday, November 11, 2019

  Actual Average (WUND) Record (WUND)
Temperature  
Mean Temperature 31 °F -  
Max Temperature 50 °F - - (-1)
Min Temperature 12 °F - - (-1)
Degree Days  
Heating Degree Days 34    
Moisture  
Dew Point 17 °F    
Average Humidity 70    
Maximum Humidity 93    
Minimum Humidity 47    
Precipitation  
Precipitation 0.00 in - - ()
Sea Level Pressure  
Sea Level Pressure 30.45 in    
Wind  
Wind Speed 22 mph (North)    
Max Wind Speed 31 mph    
Max Gust Speed 41 mph    
Visibility 9 miles    
Events Snow    
Averages and records for this station are not official NWS values.
T = Trace of Precipitation, MM = Missing Value Source: NWS Daily Summary

Daily Weather History Graph

Daily Weather History Graph

Search for Another Location

Airport or City:

Astronomy

Nov. 11, 2019 Rise Set
Actual Time 7:11 AM CST 5:32 PM CST
Civil Twilight 6:43 AM CST 5:59 PM CST
Nautical Twilight 6:13 AM CST 6:30 PM CST
Astronomical Twilight 5:42 AM CST 7:01 PM CST
Moon 5:26 PM CST (11/11) 6:07 AM CST (11/11)
Length of Visible Light 11h 15m
Length of Day
10h 21m
Waxing Gibbous, 99% of the Moon is Illuminated
Nov 11
Waxing Gibbous
Nov 12
Full
Nov 19
Last Quarter
Nov 26
New
Dec 4
First Quarter

Hourly Weather History & Observations

Time (CST) Temp. Windchill Dew Point Humidity Pressure Visibility Wind Dir Wind Speed Gust Speed Precip Events Conditions
12:15 AM 50.0 °F - 37.4 °F 62% 29.95 in 10.0 mi NNE 19.6 mph 26.5 mph N/A   Overcast
12:35 AM 50.0 °F - 37.4 °F 62% 29.97 in 10.0 mi NNE 17.3 mph 34.5 mph N/A   Overcast
12:55 AM 48.2 °F - 35.6 °F 62% 29.98 in 10.0 mi NNE 19.6 mph 27.6 mph N/A   Overcast
1:15 AM 44.6 °F 35.5 °F 33.8 °F 66% 30.00 in 10.0 mi North 25.3 mph 32.2 mph N/A   Overcast
1:35 AM 42.8 °F 33.1 °F 32.0 °F 66% 30.02 in 10.0 mi North 25.3 mph 31.1 mph N/A   Overcast
1:55 AM 42.8 °F 33.1 °F 32.0 °F 66% 30.04 in 10.0 mi North 25.3 mph 31.1 mph N/A   Overcast
2:15 AM 41.0 °F 30.5 °F 30.2 °F 65% 30.05 in 10.0 mi North 26.5 mph 33.4 mph N/A   Overcast
2:35 AM 37.4 °F 26.4 °F 30.2 °F 75% 30.08 in 10.0 mi North 23.0 mph 31.1 mph N/A   Overcast
2:55 AM 33.8 °F 21.0 °F 30.2 °F 87% 30.10 in 7.0 mi North 25.3 mph 35.7 mph N/A   Overcast
3:15 AM 33.8 °F 20.5 °F 30.2 °F 87% 30.12 in 10.0 mi North 27.6 mph 35.7 mph N/A   Overcast
3:35 AM 32.0 °F 17.6 °F 28.4 °F 87% 30.15 in 10.0 mi North 29.9 mph 38.0 mph N/A   Overcast
3:55 AM 32.0 °F 17.9 °F 28.4 °F 87% 30.17 in 10.0 mi North 28.8 mph 40.3 mph N/A   Overcast
4:15 AM 32.0 °F 18.1 °F 28.4 °F 87% 30.19 in 7.0 mi North 27.6 mph 38.0 mph N/A   Overcast
4:35 AM 30.2 °F 15.2 °F 28.4 °F 93% 30.22 in 5.0 mi North 29.9 mph 36.8 mph N/A   Overcast
4:55 AM 30.2 °F 16.2 °F 26.6 °F 86% 30.24 in 5.0 mi North 25.3 mph 40.3 mph N/A   Overcast
5:15 AM 28.4 °F 12.5 °F 26.6 °F 93% 30.27 in 5.0 mi North 31.1 mph 40.3 mph N/A   Overcast
5:35 AM 28.4 °F 13.5 °F 26.6 °F 93% 30.28 in 5.0 mi North 26.5 mph 34.5 mph N/A   Overcast
5:55 AM 26.6 °F 10.3 °F 23.0 °F 86% 30.29 in 7.0 mi North 29.9 mph 41.4 mph N/A   Overcast
6:15 AM 26.6 °F 11.7 °F 23.0 °F 86% 30.32 in 7.0 mi North 24.2 mph 35.7 mph N/A   Overcast
6:35 AM 26.6 °F 11.1 °F 23.0 °F 86% 30.34 in 7.0 mi North 26.5 mph 35.7 mph N/A   Overcast
6:55 AM 24.8 °F 8.4 °F 23.0 °F 93% 30.37 in 5.0 mi North 27.6 mph 36.8 mph N/A Snow Light Snow
7:15 AM 23.0 °F 7.2 °F 21.2 °F 93% 30.39 in 5.0 mi North 23.0 mph 36.8 mph N/A Snow Light Snow
7:35 AM 23.0 °F 5.7 °F 21.2 °F 93% 30.40 in 5.0 mi North 28.8 mph 36.8 mph N/A   Overcast
7:55 AM - - - N/A% 30.42 in - North - - N/A   Unknown
8:15 AM 23.0 °F 6.6 °F 19.4 °F 86% 30.44 in 4.0 mi North 25.3 mph 31.1 mph N/A Snow Light Snow
8:35 AM 23.0 °F 7.2 °F 19.4 °F 86% 30.46 in 4.0 mi North 23.0 mph 29.9 mph N/A Snow Light Snow
9:00 AM - - - N/A% 30.48 in - North 23.0 mph - N/A   Unknown
9:15 AM 21.2 °F 3.3 °F 19.4 °F 93% 30.49 in - North 28.8 mph - N/A   Unknown
9:35 AM 21.2 °F 3.5 °F 17.6 °F 86% 30.51 in - North 27.6 mph - N/A   Unknown
9:55 AM 23.0 °F 7.6 °F 17.6 °F 80% 30.52 in 10.0 mi North 21.9 mph 35.7 mph N/A   Unknown
10:15 AM 23.0 °F 6.9 °F 17.6 °F 80% 30.54 in 10.0 mi North 24.2 mph 32.2 mph N/A   Overcast
10:35 AM 21.2 °F 3.9 °F 15.8 °F 80% 30.54 in 10.0 mi North 26.5 mph 36.8 mph N/A   Overcast
10:55 AM 21.2 °F 4.5 °F 15.8 °F 80% 30.55 in 10.0 mi North 24.2 mph 34.5 mph N/A   Overcast
11:15 AM 23.0 °F 7.2 °F 15.8 °F 74% 30.56 in 10.0 mi North 23.0 mph 29.9 mph N/A   Unknown
12:00 PM 23.0 °F 5.4 °F 14.0 °F 68% 30.56 in - North 29.9 mph - N/A   Unknown
12:35 PM - - - N/A% 30.56 in - North 27.6 mph - N/A   Unknown
12:55 PM - - - N/A% 30.54 in - North 28.8 mph - N/A   Unknown
1:15 PM 26.6 °F 10.8 °F 14.0 °F 59% 30.55 in 10.0 mi North 27.6 mph 36.8 mph N/A   Scattered Clouds
1:35 PM 28.4 °F 13.0 °F 12.2 °F 51% 30.55 in 10.0 mi North 28.8 mph 36.8 mph N/A   Scattered Clouds
2:15 PM 26.6 °F 11.7 °F 12.2 °F 55% 30.57 in 10.0 mi North 24.2 mph 36.8 mph N/A   Scattered Clouds
2:35 PM 26.6 °F 11.1 °F 12.2 °F 55% 30.57 in 10.0 mi North 26.5 mph 29.9 mph N/A   Unknown
2:55 PM 26.6 °F 12.4 °F 12.2 °F 55% 30.57 in 10.0 mi North 21.9 mph 33.4 mph N/A   Mostly Cloudy
3:15 PM 26.6 °F 11.7 °F 12.2 °F 55% 30.58 in 10.0 mi North 24.2 mph 31.1 mph N/A   Mostly Cloudy
3:35 PM 26.6 °F 12.0 °F 12.2 °F 55% 30.58 in 10.0 mi North 23.0 mph 32.2 mph N/A   Scattered Clouds
4:15 PM 26.6 °F 12.0 °F 10.4 °F 51% 30.59 in 10.0 mi North 23.0 mph 29.9 mph N/A   Clear
4:35 PM 26.6 °F 12.0 °F 10.4 °F 51% 30.59 in 10.0 mi North 23.0 mph 29.9 mph N/A   Clear
4:55 PM 26.6 °F 12.7 °F 10.4 °F 51% 30.59 in 10.0 mi North 20.7 mph 25.3 mph N/A   Clear
5:15 PM 26.6 °F 13.4 °F 8.6 °F 47% 30.60 in 10.0 mi North 18.4 mph 25.3 mph N/A   Clear
5:35 PM 24.8 °F 12.4 °F 8.6 °F 50% 30.61 in 10.0 mi North 15.0 mph 24.2 mph N/A   Clear
5:55 PM 23.0 °F 11.1 °F 8.6 °F 54% 30.62 in 10.0 mi North 12.7 mph 20.7 mph N/A   Clear
6:15 PM 23.0 °F 10.1 °F 6.8 °F 50% 30.63 in 10.0 mi North 15.0 mph - N/A   Clear
6:35 PM 21.2 °F 10.1 °F 5.0 °F 50% 30.64 in 10.0 mi North 10.4 mph - N/A   Clear
6:55 PM 21.2 °F 8.3 °F 5.0 °F 50% 30.66 in 10.0 mi North 13.8 mph 17.3 mph N/A   Clear
7:15 PM 19.4 °F 7.2 °F 5.0 °F 54% 30.66 in 10.0 mi North 11.5 mph - N/A   Clear
7:35 PM 19.4 °F 7.2 °F 5.0 °F 54% 30.67 in 10.0 mi North 11.5 mph - N/A   Clear
7:55 PM 17.6 °F 6.4 °F 5.0 °F 58% 30.68 in 10.0 mi North 9.2 mph - N/A   Clear
8:15 PM 17.6 °F 5.7 °F 5.0 °F 58% 30.68 in 10.0 mi North 10.4 mph - N/A   Clear
8:55 PM 17.6 °F 4.3 °F 5.0 °F 58% 30.68 in 10.0 mi North 12.7 mph - N/A   Clear
9:15 PM 17.6 °F 5.7 °F 5.0 °F 58% 30.69 in 10.0 mi North 10.4 mph - N/A   Clear
9:35 PM 15.8 °F 4.2 °F 5.0 °F 62% 30.70 in 10.0 mi North 9.2 mph - N/A   Clear
9:55 PM 15.8 °F 4.2 °F 5.0 °F 62% 30.71 in 10.0 mi North 9.2 mph - N/A   Clear
10:15 PM 14.0 °F 2.0 °F 5.0 °F 67% 30.70 in 10.0 mi North 9.2 mph - N/A   Clear
10:35 PM 14.0 °F 2.9 °F 5.0 °F 67% 30.70 in 10.0 mi North 8.1 mph - N/A   Clear
10:55 PM 12.2 °F 0.7 °F 5.0 °F 73% 30.70 in 10.0 mi North 8.1 mph - N/A   Clear
11:15 PM 12.2 °F -0.2 °F 5.0 °F 73% 30.70 in 10.0 mi NNW 9.2 mph - N/A   Clear
11:35 PM 12.2 °F 1.7 °F 5.0 °F 73% 30.70 in 10.0 mi NNW 6.9 mph - N/A   Clear
11:55 PM 12.2 °F -0.2 °F 5.0 °F 73% 30.70 in 10.0 mi North 9.2 mph - N/A   Clear